Weather History for YBHM - November, 2013

Change the Weather History Date:

Friday, November 29, 2013

  Actual Average Record
Temperature  
Mean Temperature 78 °F -  
Max Temperature 84 °F - - ()
Min Temperature 73 °F - - ()
Cooling Degree Days 14    
Growing Degree Days 28 (Base 50)    
Moisture  
Dew Point 65 °F    
Average Humidity 63    
Maximum Humidity 83    
Minimum Humidity 47    
Precipitation  
Precipitation 0.01 in - - ()
Sea Level Pressure  
Sea Level Pressure 29.86 in    
Wind  
Wind Speed 10 mph ()    
Max Wind Speed 16 mph    
Max Gust Speed -    
T = Trace of Precipitation, MM = Missing Value Source: Averaged Metar Reports

Daily Weather History Graph

Daily Weather History Graph

Search for Another Location

Airport or City:

Trip Planner

Search our weather history database for the weather conditions in past years. The results will help you decide how hot, cold, wet, or windy it might be!

Date:

Astronomy

Nov. 29, 2013 Rise Set
Actual Time 5:14 AM AEST 6:30 PM AEST
Civil Twilight 4:50 AM AEST 6:54 PM AEST
Nautical Twilight 4:22 AM AEST 7:23 PM AEST
Astronomical Twilight 3:52 AM AEST 7:52 PM AEST
Moon 1:57 AM AEST (11/29) 2:42 PM AEST (11/29)
Length of Visible Light 14h 03m
Length of Day
13h 15m
Waning Crescent, 19% of the Moon is Illuminated
Nov 29
Waning Crescent
Dec 3
New
Dec 10
First Quarter
Dec 17
Full
Dec 25
Last Quarter

Hourly Weather History & Observations

Time (AEST) Temp. Heat Index Dew Point Humidity Pressure Visibility Wind Dir Wind Speed Gust Speed Precip Events Conditions
12:00 AM 76 °F - 61 °F 50% 29.91 in - East 13.8 mph - -  
12:00 AM 75.2 °F - 60.8 °F 61% 29.92 in - East 13.8 mph - N/A   Unknown
12:30 AM 75.2 °F - 60.8 °F 61% 29.89 in - East 13.8 mph - N/A   Unknown
1:00 AM 75.2 °F - 62.6 °F 65% 29.89 in - East 15.0 mph - N/A   Unknown
1:30 AM 75.2 °F - 60.8 °F 61% 29.86 in - ENE 13.8 mph - N/A   Unknown
2:00 AM 75.2 °F - 62.6 °F 65% 29.86 in - East 11.5 mph - N/A   Unknown
2:30 AM 75.2 °F - 60.8 °F 61% 29.86 in - ENE 10.4 mph - N/A   Unknown
3:00 AM 75 °F - 61 °F 52% 29.87 in - ENE 9.2 mph - -  
3:00 AM 75.2 °F - 60.8 °F 61% 29.86 in - ENE 9.2 mph - N/A   Unknown
3:30 AM 75.2 °F - 60.8 °F 61% 29.86 in - ENE 8.1 mph - N/A   Unknown
4:00 AM 73.4 °F - 60.8 °F 65% 29.86 in - NE 9.2 mph - N/A   Unknown
4:30 AM 73.4 °F - 62.6 °F 69% 29.86 in - NNE 5.8 mph - N/A   Unknown
5:00 AM 73.4 °F - 64.4 °F 73% 29.86 in - NW 4.6 mph - N/A   Unknown
5:30 AM 73.4 °F - 64.4 °F 73% 29.86 in - ESE 3.5 mph - N/A   Unknown
6:00 AM 76 °F - 64 °F 58% 29.87 in - East 5.8 mph - -  
6:00 AM 77.0 °F - 64.4 °F 65% 29.86 in - East 5.8 mph - N/A   Unknown
6:30 AM 78.8 °F - 62.6 °F 57% 29.89 in - NNE 6.9 mph - N/A   Unknown
7:00 AM 77.0 °F - 62.6 °F 61% 29.89 in - ENE 6.9 mph - N/A   Unknown
7:30 AM 77.0 °F - 60.8 °F 57% 29.89 in - NE 5.8 mph - N/A   Unknown
8:00 AM 80.6 °F 82.3 °F 64.4 °F 58% 29.92 in - NNW 2.3 mph - N/A   Unknown
8:30 AM 78.8 °F - 62.6 °F 57% 29.92 in - North 4.6 mph - N/A   Unknown
9:00 AM 81 °F - 64 °F 47% 29.91 in - East 11.5 mph - -  
9:00 AM 80.6 °F 82.3 °F 64.4 °F 58% 29.92 in - East 11.5 mph - N/A   Unknown
9:30 AM 80.6 °F 81.8 °F 62.6 °F 54% 29.89 in - East 15.0 mph - N/A   Unknown
10:00 AM 80.6 °F 81.8 °F 62.6 °F 54% 29.89 in - East 13.8 mph - N/A   Unknown
10:30 AM 80.6 °F 81.8 °F 62.6 °F 54% 29.89 in - East 15.0 mph - N/A   Unknown
11:00 AM 80.6 °F 81.8 °F 62.6 °F 54% 29.89 in - East 16.1 mph - N/A   Unknown
11:30 AM 82.4 °F 83.9 °F 64.4 °F 54% 29.86 in - ESE 13.8 mph - N/A   Unknown
12:00 PM 82 °F - 65 °F 47% 29.86 in - East 13.8 mph - -  
12:00 PM 82.4 °F 83.9 °F 64.4 °F 54% 29.86 in - East 13.8 mph - N/A   Unknown
12:30 PM 82.4 °F 83.9 °F 64.4 °F 54% 29.86 in - ESE 12.7 mph - N/A   Unknown
1:00 PM 82.4 °F 83.4 °F 62.6 °F 51% 29.86 in - ESE 11.5 mph - N/A   Unknown
1:30 PM 84.2 °F 86.6 °F 66.2 °F 55% 29.83 in - WNW 6.9 mph - N/A   Unknown
2:00 PM 82.4 °F 84.6 °F 66.2 °F 58% 29.83 in - NNW 10.4 mph - N/A   Unknown
2:30 PM 82.4 °F 84.6 °F 66.2 °F 58% 29.80 in - NW 11.5 mph - N/A   Unknown
3:00 PM 83 °F - 67 °F 48% 29.80 in - NNW 12.7 mph - -  
3:00 PM 82.4 °F 84.6 °F 66.2 °F 58% 29.80 in - NNW 12.7 mph - N/A   Unknown
3:30 PM 82.4 °F 85.4 °F 68.0 °F 62% 29.77 in - NW 15.0 mph - N/A   Unknown
4:00 PM 82.4 °F 85.4 °F 68.0 °F 62% 29.77 in - NW 15.0 mph - N/A   Unknown
4:30 PM 82.4 °F 84.6 °F 66.2 °F 58% 29.77 in - NW 13.8 mph - N/A   Unknown
5:00 PM 80.6 °F 83.2 °F 68.0 °F 65% 29.77 in - North 10.4 mph - N/A   Unknown
5:30 PM 80.6 °F 82.7 °F 66.2 °F 61% 29.80 in - North 11.5 mph - N/A   Unknown
6:00 PM 79 °F - 68 °F 61% 29.81 in - North 10.4 mph - -  
6:00 PM 78.8 °F - 68.0 °F 69% 29.80 in - North 10.4 mph - N/A   Unknown
6:30 PM 78.8 °F - 68.0 °F 69% 29.83 in - North 12.7 mph - N/A   Unknown
7:00 PM 77.0 °F - 68.0 °F 74% 29.83 in - NNE 9.2 mph - N/A   Unknown
7:30 PM 77.0 °F - 68.0 °F 74% 29.83 in - NNE 10.4 mph - N/A   Unknown
8:00 PM 77.0 °F - 69.8 °F 78% 29.86 in - North 10.4 mph - N/A   Unknown
8:30 PM 77.0 °F - 69.8 °F 78% 29.86 in - North 11.5 mph - N/A   Unknown
9:00 PM 78 °F - 69 °F 68% 29.86 in - North 8.1 mph - -  
9:00 PM 77.0 °F - 69.8 °F 78% 29.86 in - North 8.1 mph - N/A   Unknown
9:30 PM 77.0 °F - 69.8 °F 78% 29.86 in - North 9.2 mph - N/A   Unknown
10:00 PM 77.0 °F - 69.8 °F 78% 29.86 in - North 8.1 mph - N/A   Unknown
10:30 PM 77.0 °F - 69.8 °F 78% 29.86 in - North 8.1 mph - N/A   Unknown
11:00 PM 77.0 °F - 69.8 °F 78% 29.86 in - North 8.1 mph - N/A   Unknown
11:30 PM 77.0 °F - 71.6 °F 83% 29.86 in - NNW 6.9 mph - N/A   Unknown